INSIDE THOROFARE AT ATLANTIC CITY HADS current weather conditions

sailwx.info

Wind from 124 at 3 knots gusting 6

Air temperature 26.0° C
Dewpoint 22.3° C

Last reported at 2020-Jul-08 13:00 UTC.
Time now 2020-Jul-08 13:59 UTC

Location: N 39°21' W 074°27'.
View on Google Maps.

See reports from other nearby stations

  
Tides and Currents Weather Stations Pressure Air Temp Water Temp Dewpoint Dewpoint Depression Visibility Wind Speed Wind Dir Waves Ship Positions
date/time (UTC)wind fromknots sea level pressurealtimeterstation pressurevisibilityair tempwater tempwave heightnotes
2020-Jul-08 13:00 124 3 gusting 6 26.0
2020-Jul-08 12:54 125 2 gusting 5 26.2
2020-Jul-08 12:48 122 3 gusting 6 26.1
2020-Jul-08 12:42 126 2 gusting 5 26.1
2020-Jul-08 12:36 155 2 gusting 4 26.0
2020-Jul-08 12:30 149 2 gusting 6 25.9
2020-Jul-08 12:24 142 2 gusting 6 25.8
2020-Jul-08 12:18 137 3 gusting 5 25.7
2020-Jul-08 12:12 115 2 gusting 5 25.8
2020-Jul-08 12:06 118 3 gusting 5 25.8
2020-Jul-08 12:00 140 2 gusting 5 25.7
2020-Jul-08 11:54 122 3 gusting 5 25.6
2020-Jul-08 11:48 126 2 gusting 5 25.6
2020-Jul-08 11:42 146 2 gusting 5 25.4
2020-Jul-08 11:36 140 2 gusting 5 25.3
2020-Jul-08 11:30 135 2 gusting 5 25.3
2020-Jul-08 11:24 137 2 gusting 4 25.3
2020-Jul-08 11:18 146 2 gusting 5 25.1
2020-Jul-08 11:12 133 2 gusting 4 25.1
2020-Jul-08 11:06 135 2 gusting 5 25.0
2020-Jul-08 11:00 137 2 gusting 5 25.0
2020-Jul-08 10:54 141 1 gusting 4 24.9
2020-Jul-08 10:48 134 2 gusting 4 24.8
2020-Jul-08 10:42 129 2 gusting 5 24.8
2020-Jul-08 10:36 141 2 gusting 5 24.7
2020-Jul-08 10:30 139 2 gusting 5 24.7
2020-Jul-08 10:24 128 1 gusting 4 24.7
2020-Jul-08 10:18 142 1 gusting 4 24.6
2020-Jul-08 10:12 135 2 gusting 5 24.5
2020-Jul-08 10:06 128 2 gusting 6 24.5
2020-Jul-08 10:00 132 2 gusting 5 24.4
2020-Jul-08 09:54 145 2 gusting 5 24.4
2020-Jul-08 09:48 140 2 gusting 5 24.4
2020-Jul-08 09:42 137 2 gusting 5 24.4
2020-Jul-08 09:36 124 2 gusting 4 24.4
2020-Jul-08 09:30 140 1 gusting 3 24.4
2020-Jul-08 09:24 143 1 gusting 3 24.4
2020-Jul-08 09:18 119 1 gusting 5 24.4
2020-Jul-08 09:12 129 2 gusting 4 24.4
2020-Jul-08 09:06 134 2 gusting 5 24.4
2020-Jul-08 09:00 131 3 gusting 6 24.4
2020-Jul-08 08:54 122 2 gusting 5 24.4
2020-Jul-08 08:48 131 2 gusting 5 24.4
2020-Jul-08 08:42 144 2 gusting 5 24.3
2020-Jul-08 08:36 151 2 gusting 6 24.3
2020-Jul-08 08:30 155 3 gusting 7 24.4
2020-Jul-08 08:24 162 3 gusting 6 24.4
2020-Jul-08 08:18 160 3 gusting 7 24.4
2020-Jul-08 08:12 153 3 gusting 6 24.4
2020-Jul-08 08:06 152 3 gusting 6 24.4
2020-Jul-08 08:00 151 3 gusting 6 24.3
2020-Jul-08 07:54 169 2 gusting 4 24.3
2020-Jul-08 07:48 175 2 gusting 5 24.3
2020-Jul-08 07:42 168 2 gusting 5 24.3
2020-Jul-08 07:36 167 3 gusting 6 24.3
2020-Jul-08 07:30 164 3 gusting 7 24.3
2020-Jul-08 07:24 155 3 gusting 6 24.3
2020-Jul-08 07:18 158 4 gusting 8 24.3
2020-Jul-08 07:12 155 4 gusting 6 24.3
2020-Jul-08 07:06 161 4 gusting 7 24.4
2020-Jul-08 07:00 158 4 gusting 8 24.4
2020-Jul-08 06:54 160 3 gusting 6 24.4
2020-Jul-08 06:48 161 3 gusting 8 24.4
2020-Jul-08 06:42 161 4 gusting 7 24.4
2020-Jul-08 06:36 162 3 gusting 7 24.4
2020-Jul-08 06:30 164 3 gusting 6 24.4
2020-Jul-08 06:24 159 4 gusting 8 24.4
2020-Jul-08 06:18 163 3 gusting 7 24.4
2020-Jul-08 06:12 159 4 gusting 8 24.4
2020-Jul-08 06:06 158 3 gusting 7 24.5
2020-Jul-08 06:00 158 4 gusting 7 24.5
2020-Jul-08 05:54 158 4 gusting 8 24.5
2020-Jul-08 05:48 163 5 gusting 8 24.5
2020-Jul-08 05:42 161 5 gusting 9 24.5
2020-Jul-08 05:36 161 5 gusting 9 24.5
2020-Jul-08 05:30 157 4 gusting 8 24.5
2020-Jul-08 05:24 166 5 gusting 10 24.5
2020-Jul-08 05:18 163 5 gusting 10 24.5
2020-Jul-08 05:12 164 5 gusting 9 24.5
2020-Jul-08 05:06 166 6 gusting 9 24.6
2020-Jul-08 05:00 166 5 gusting 9 24.6
2020-Jul-08 04:54 164 5 gusting 10 24.6
2020-Jul-08 04:48 160 4 gusting 8 24.7
2020-Jul-08 04:42 162 5 gusting 10 24.7
2020-Jul-08 04:36 166 6 gusting 10 24.7
2020-Jul-08 04:30 164 5 gusting 9 24.7
2020-Jul-08 04:24 161 5 gusting 8 24.7
2020-Jul-08 04:18 161 5 gusting 10 24.7
2020-Jul-08 04:12 162 5 gusting 8 24.7
2020-Jul-08 04:06 161 5 gusting 9 24.8
2020-Jul-08 04:00 164 4 gusting 9 24.8
2020-Jul-08 03:54 164 4 gusting 8 24.8
2020-Jul-08 03:48 159 4 gusting 10 24.8
2020-Jul-08 03:42 169 5 gusting 10 24.7
2020-Jul-08 03:36 162 5 gusting 9 24.7
2020-Jul-08 03:30 160 5 gusting 9 24.8
2020-Jul-08 03:24 162 5 gusting 10 24.7
2020-Jul-08 03:18 161 5 gusting 9 24.8
2020-Jul-08 03:12 161 5 gusting 8 24.8
2020-Jul-08 03:06 159 5 gusting 9 24.8
2020-Jul-08 03:00 166 4 gusting 8 24.8
2020-Jul-08 02:54 170 4 gusting 7 24.8
2020-Jul-08 02:48 164 3 gusting 7 24.8
2020-Jul-08 02:42 161 4 gusting 7 24.8
2020-Jul-08 02:36 165 5 gusting 8 24.8
2020-Jul-08 02:30 161 4 gusting 8 24.8
2020-Jul-08 02:24 156 4 gusting 8 24.8
2020-Jul-08 02:18 166 4 gusting 8 24.9
2020-Jul-08 02:12 160 3 gusting 7 24.9
2020-Jul-08 02:06 151 2 gusting 7 24.9
2020-Jul-08 02:00 133 2 gusting 5 24.9
2020-Jul-08 01:54 156 2 gusting 6 24.9
2020-Jul-08 01:48 167 3 gusting 7 24.9
2020-Jul-08 01:42 148 2 gusting 4 25.0
2020-Jul-08 01:36 141 3 gusting 6 24.9
2020-Jul-08 01:30 160 3 gusting 8 24.9
2020-Jul-08 01:24 162 4 gusting 8 24.9
2020-Jul-08 01:18 169 5 gusting 8 24.9
2020-Jul-08 01:12 165 3 gusting 9 25.0
2020-Jul-08 01:06 153 2 gusting 6 25.0
2020-Jul-08 01:00 160 4 gusting 8 24.9
2020-Jul-08 00:54 166 4 gusting 8 24.9
2020-Jul-08 00:48 160 4 gusting 8 25.0
2020-Jul-08 00:42 158 3 gusting 7 25.0
2020-Jul-08 00:36 171 4 gusting 8 25.0
2020-Jul-08 00:30 160 5 gusting 8 25.0
2020-Jul-08 00:24 162 3 gusting 8 25.0
2020-Jul-08 00:18 159 4 gusting 7 25.1
2020-Jul-08 00:12 166 3 gusting 7 25.1
2020-Jul-08 00:06 166 2 gusting 7 25.2
2020-Jul-08 00:00 152 3 gusting 6 25.2
2020-Jul-07 23:54 140 3 gusting 7 25.3
2020-Jul-07 23:48 135 3 gusting 5 25.3
2020-Jul-07 23:42 134 3 gusting 6 25.3
2020-Jul-07 23:36 151 3 gusting 6 25.4
2020-Jul-07 23:30 146 3 gusting 7 25.5
2020-Jul-07 23:24 128 4 gusting 8 25.6
2020-Jul-07 23:18 133 3 gusting 7 25.9
2020-Jul-07 23:12 136 3 gusting 7 26.1
2020-Jul-07 23:06 141 3 gusting 8 26.3
2020-Jul-07 23:00 159 3 gusting 7 26.3
2020-Jul-07 22:54 163 3 gusting 7 26.1
2020-Jul-07 22:48 145 4 gusting 7 26.1
2020-Jul-07 22:42 173 3 gusting 6 26.2
2020-Jul-07 22:36 189 4 gusting 8 26.1
2020-Jul-07 22:30 182 4 gusting 9 26.0
2020-Jul-07 22:24 176 5 gusting 8 25.7
2020-Jul-07 22:18 179 5 gusting 8 26.0
2020-Jul-07 22:12 160 3 gusting 6 26.0
2020-Jul-07 22:06 161 5 gusting 8 25.7
2020-Jul-07 22:00 162 5 gusting 9 25.7
2020-Jul-07 21:54 153 5 gusting 10 25.6
2020-Jul-07 21:48 150 4 gusting 7 25.6
2020-Jul-07 21:42 156 4 gusting 8 25.7
2020-Jul-07 21:36 158 6 gusting 12 25.7
2020-Jul-07 21:30 149 4 gusting 9 26.0
2020-Jul-07 21:24 156 4 gusting 10 26.2
2020-Jul-07 21:12 26.3
2020-Jul-07 20:54 155 4 gusting 8 26.2
2020-Jul-07 20:48 161 4 gusting 9 26.4
2020-Jul-07 20:42 154 4 gusting 9 26.3
2020-Jul-07 20:36 161 4 gusting 9 26.1
2020-Jul-07 20:30 159 4 gusting 9 26.1
2020-Jul-07 20:24 158 4 gusting 8 26.1
2020-Jul-07 20:18 147 3 gusting 7 26.5
2020-Jul-07 20:12 149 3 gusting 6 26.4
2020-Jul-07 20:06 136 4 gusting 8 26.3
2020-Jul-07 20:00 139 3 gusting 7 26.2
2020-Jul-07 19:54 138 3 gusting 8 25.9
2020-Jul-07 19:48 145 4 gusting 6 26.0
2020-Jul-07 19:42 129 4 gusting 7 26.0
2020-Jul-07 19:36 141 4 gusting 7 26.0
2020-Jul-07 19:30 116 5 gusting 9 26.3
2020-Jul-07 19:24 110 5 gusting 9 26.4
2020-Jul-07 19:18 114 5 gusting 9 26.4
2020-Jul-07 19:12 105 6 gusting 9 26.2
2020-Jul-07 19:06 108 5 gusting 8 26.6
2020-Jul-07 19:00 105 5 gusting 9 26.7
2020-Jul-07 18:54 158 2 gusting 6 26.9
2020-Jul-07 18:48 124 4 gusting 8 26.7
2020-Jul-07 18:42 112 4 gusting 9 27.0
2020-Jul-07 18:36 145 3 gusting 6 27.0
2020-Jul-07 18:30 121 4 gusting 8 26.8
2020-Jul-07 18:24 153 3 gusting 6 27.0
2020-Jul-07 18:18 147 3 gusting 7 26.8
2020-Jul-07 18:12 120 3 gusting 7 26.6
2020-Jul-07 18:06 121 4 gusting 8 27.0
2020-Jul-07 18:00 133 3 gusting 6 27.2
2020-Jul-07 17:54 156 3 gusting 8 26.5
2020-Jul-07 17:48 155 4 gusting 7 26.1
2020-Jul-07 17:42 160 4 gusting 9 25.9
2020-Jul-07 17:36 146 3 gusting 7 26.4
2020-Jul-07 17:30 138 2 gusting 5 26.5
2020-Jul-07 17:24 152 3 gusting 6 26.4
2020-Jul-07 17:18 155 3 gusting 7 26.5
2020-Jul-07 17:12 159 3 gusting 6 26.3
2020-Jul-07 17:06 137 3 gusting 7 26.0
2020-Jul-07 17:00 146 3 gusting 6 26.2
2020-Jul-07 16:54 163 4 gusting 7 25.8
2020-Jul-07 16:48 162 4 gusting 7 25.7
2020-Jul-07 16:42 160 5 gusting 8 25.5
2020-Jul-07 16:30 169 4 gusting 6 26.2
2020-Jul-07 16:24 186 5 gusting 8 25.9
2020-Jul-07 16:18 175 4 gusting 7 26.0
2020-Jul-07 16:12 172 5 gusting 8 26.1
2020-Jul-07 16:06 190 5 gusting 10 26.4
2020-Jul-07 16:00 181 4 gusting 7 26.5
2020-Jul-07 15:54 184 5 gusting 8 26.1
2020-Jul-07 15:48 176 5 gusting 8 26.1
2020-Jul-07 15:42 185 5 gusting 9 25.8
2020-Jul-07 15:36 145 3 gusting 6 26.1
2020-Jul-07 15:30 153 3 gusting 6 25.8
2020-Jul-07 15:24 167 3 gusting 7 25.6
2020-Jul-07 15:18 190 5 gusting 9 25.3
2020-Jul-07 15:12 177 3 gusting 7 25.8
2020-Jul-07 15:06 173 3 gusting 6 25.8
2020-Jul-07 15:00 164 5 gusting 9 25.4
2020-Jul-07 14:54 152 4 gusting 7 25.5
2020-Jul-07 14:48 167 4 gusting 7 25.5
2020-Jul-07 14:42 167 2 gusting 6 25.7
2020-Jul-07 14:36 191 4 gusting 7 25.4
2020-Jul-07 14:30 181 5 gusting 9 25.4
2020-Jul-07 14:24 180 6 gusting 9 25.4
2020-Jul-07 14:18 180 6 gusting 9 25.4
2020-Jul-07 14:12 179 4 gusting 7 25.5
2020-Jul-07 14:06 183 4 gusting 7 25.5
2020-Jul-07 14:00 183 4 gusting 9 25.1
2020-Jul-07 13:54 186 5 gusting 7 25.1
2020-Jul-07 13:48 180 5 gusting 9 25.1
2020-Jul-07 13:42 181 5 gusting 9 25.3
2020-Jul-07 13:36 184 3 gusting 7 25.4
2020-Jul-07 13:30 176 3 gusting 7 25.3
2020-Jul-07 13:24 181 3 gusting 7 25.3
2020-Jul-07 13:18 160 3 gusting 6 25.4
2020-Jul-07 13:12 160 2 gusting 6 25.5
2020-Jul-07 13:06 172 3 gusting 6 25.3
2020-Jul-07 13:00 165 3 gusting 5 25.1
2020-Jul-07 12:54 159 3 gusting 5 25.3
2020-Jul-07 12:48 118 3 gusting 7 25.3
2020-Jul-07 12:42 129 2 gusting 6 25.2
2020-Jul-07 12:36 107 4 gusting 6 25.1
2020-Jul-07 12:30 100 4 gusting 7 24.9
2020-Jul-07 12:24 104 5 gusting 8 24.8
2020-Jul-07 12:18 105 5 gusting 7 24.8
2020-Jul-07 12:12 109 4 gusting 7 24.8
2020-Jul-07 12:06 096 4 gusting 7 24.7
2020-Jul-07 12:00 104 4 gusting 7 24.6
2020-Jul-07 11:54 109 4 gusting 7 24.5
2020-Jul-07 11:48 099 4 gusting 7 24.4
2020-Jul-07 11:42 102 3 gusting 7 24.4
2020-Jul-07 11:36 097 3 gusting 5 24.3
2020-Jul-07 11:30 101 3 gusting 6 24.2
2020-Jul-07 11:24 099 3 gusting 6 24.1
2020-Jul-07 11:18 091 2 gusting 5 24.1
2020-Jul-07 11:12 097 3 gusting 6 24.1
2020-Jul-07 11:06 095 3 gusting 6 24.0
2020-Jul-07 11:00 098 3 gusting 5 24.0
2020-Jul-07 10:54 088 3 gusting 6 24.0
2020-Jul-07 10:48 084 3 gusting 7 24.0
2020-Jul-07 10:42 084 3 gusting 6 23.9
2020-Jul-07 10:36 104 3 gusting 5 23.9
2020-Jul-07 10:30 086 4 gusting 6 23.9
2020-Jul-07 10:24 088 4 gusting 7 23.8
2020-Jul-07 10:18 086 5 gusting 9 23.8
2020-Jul-07 10:12 089 5 gusting 7 23.8
2020-Jul-07 10:06 083 5 gusting 8 23.6
2020-Jul-07 10:00 089 3 gusting 6 23.6
2020-Jul-07 09:54 081 3 gusting 6 23.6
2020-Jul-07 09:48 089 5 gusting 7 23.6
2020-Jul-07 09:42 084 4 gusting 7 23.6
2020-Jul-07 09:36 093 3 gusting 5 23.5
2020-Jul-07 09:30 104 2 gusting 5 23.4
2020-Jul-07 09:24 110 1 gusting 3 23.3
2020-Jul-07 09:18 114 1 gusting 2 23.3
2020-Jul-07 09:12 107 1 gusting 2 23.4
2020-Jul-07 09:06 110 1 gusting 2 23.5
2020-Jul-07 09:00 092 1 gusting 2 23.5
2020-Jul-07 08:54 130 1 gusting 2 23.5
2020-Jul-07 08:48 165 1 gusting 3 23.5
2020-Jul-07 08:42 144 1 gusting 2 23.5
2020-Jul-07 08:36 152 2 gusting 4 23.5
2020-Jul-07 08:30 152 2 gusting 4 23.6
2020-Jul-07 08:24 121 2 gusting 4 23.5
2020-Jul-07 08:18 129 2 gusting 4 23.4
2020-Jul-07 08:12 120 2 gusting 3 23.4
2020-Jul-07 08:06 113 2 gusting 4 23.5
2020-Jul-07 08:00 104 3 gusting 5 23.5
2020-Jul-07 07:54 109 3 gusting 5 23.6
2020-Jul-07 07:48 111 2 gusting 4 23.6
2020-Jul-07 07:42 120 2 gusting 4 23.6
2020-Jul-07 07:36 114 2 gusting 4 23.7
2020-Jul-07 07:30 095 2 gusting 5 23.7
2020-Jul-07 07:24 087 3 gusting 7 23.7
2020-Jul-07 07:18 088 4 gusting 6 23.7
2020-Jul-07 07:12 109 2 gusting 6 23.5
2020-Jul-07 07:06 107 3 gusting 4 23.5
2020-Jul-07 07:00 104 3 gusting 4 23.5
2020-Jul-07 06:54 110 3 gusting 5 23.5
2020-Jul-07 06:48 120 2 gusting 4 23.3
2020-Jul-07 06:42 120 2 gusting 5 23.3
2020-Jul-07 06:36 131 2 gusting 3 23.3
2020-Jul-07 06:30 120 3 gusting 5 23.5
2020-Jul-07 06:24 112 3 gusting 5 23.5
2020-Jul-07 06:18 114 2 gusting 4 23.5
2020-Jul-07 06:12 113 2 gusting 4 23.6
2020-Jul-07 06:06 102 2 gusting 3 23.7
2020-Jul-07 06:00 089 1 gusting 3 23.5
2020-Jul-07 05:54 038 1 gusting 2 23.5
2020-Jul-07 05:48 034 1 gusting 1 23.5
2020-Jul-07 05:42 073 0 gusting 1 23.4
2020-Jul-07 05:36 055 1 gusting 2 23.3
2020-Jul-07 05:30 089 1 gusting 2 23.3
2020-Jul-07 05:24 112 1 gusting 3 23.5
2020-Jul-07 05:18 114 2 gusting 4 23.6
2020-Jul-07 05:12 111 1 gusting 2 23.7
2020-Jul-07 05:06 119 1 gusting 2 23.8
2020-Jul-07 05:00 079 1 gusting 3 23.7
2020-Jul-07 04:54 094 2 gusting 3 23.7
2020-Jul-07 04:48 121 1 gusting 3 23.7
2020-Jul-07 04:42 117 2 gusting 3 23.8
2020-Jul-07 04:36 102 3 gusting 4 23.9
2020-Jul-07 04:30 103 1 gusting 3 24.0
2020-Jul-07 04:24 053 1 gusting 2 24.0
2020-Jul-07 04:18 057 1 gusting 2 24.1
2020-Jul-07 04:12 126 0 gusting 1 24.2
2020-Jul-07 04:06 149 1 gusting 3 24.1
2020-Jul-07 04:00 152 2 gusting 5 24.2
2020-Jul-07 03:54 149 3 gusting 7 24.2
2020-Jul-07 03:48 134 3 gusting 5 24.2
2020-Jul-07 03:42 156 3 gusting 6 24.1
2020-Jul-07 03:36 166 3 gusting 6 23.8
2020-Jul-07 03:30 163 2 gusting 4 23.7
2020-Jul-07 03:24 161 3 gusting 5 23.7
2020-Jul-07 03:18 146 3 gusting 6 23.7
2020-Jul-07 03:12 138 3 gusting 5 23.9
2020-Jul-07 03:06 175 3 gusting 7 24.0
2020-Jul-07 03:00 188 5 gusting 8 24.0
2020-Jul-07 02:54 190 5 gusting 9 24.0
2020-Jul-07 02:48 185 5 gusting 9 24.1
2020-Jul-07 02:42 188 6 gusting 10 24.2
2020-Jul-07 02:36 175 5 gusting 8 24.2
2020-Jul-07 02:30 185 5 gusting 10 24.3
2020-Jul-07 02:24 196 7 gusting 12 24.4
2020-Jul-07 02:18 198 7 gusting 13 24.4
2020-Jul-07 02:12 204 7 gusting 11 24.4
2020-Jul-07 02:06 208 8 gusting 15 24.7
2020-Jul-07 02:00 208 7 gusting 13 24.8
2020-Jul-07 01:54 201 8 gusting 13 24.8
2020-Jul-07 01:48 202 7 gusting 12 24.8
2020-Jul-07 01:42 201 8 gusting 12 25.1
2020-Jul-07 01:36 203 8 gusting 13 24.6
2020-Jul-07 01:30 206 8 gusting 11 24.3
2020-Jul-07 01:24 209 9 gusting 15 24.5
2020-Jul-07 01:18 204 10 gusting 17 24.8
2020-Jul-07 01:12 195 9 gusting 15 24.9
2020-Jul-07 01:06 195 9 gusting 15 24.7
2020-Jul-07 01:00 196 9 gusting 14 24.6
2020-Jul-07 00:54 190 7 gusting 14 24.3
2020-Jul-07 00:48 173 6 gusting 11 24.3
2020-Jul-07 00:42 185 3 gusting 8 24.3
2020-Jul-07 00:36 172 3 gusting 8 24.4
2020-Jul-07 00:30 169 6 gusting 10 24.4
2020-Jul-07 00:24 165 7 gusting 12 24.4
2020-Jul-07 00:18 163 5 gusting 9 24.4
2020-Jul-07 00:12 151 4 gusting 9 24.6
2020-Jul-07 00:06 137 3 gusting 6 24.3
2020-Jul-07 00:00 106 2 gusting 8 24.4
2020-Jul-06 23:54 104 3 gusting 8 24.3
2020-Jul-06 23:48 103 6 gusting 10 24.5
2020-Jul-06 23:42 102 6 gusting 10 24.7
2020-Jul-06 23:36 103 5 gusting 8 24.7
2020-Jul-06 23:30 102 7 gusting 11 24.8
2020-Jul-06 23:24 101 8 gusting 14 25.0
2020-Jul-06 23:18 097 8 gusting 14 25.0
2020-Jul-06 23:12 095 7 gusting 13 25.5
2020-Jul-06 23:06 095 4 gusting 8 24.2
2020-Jul-06 23:00 186 2 gusting 3 23.4
2020-Jul-06 22:54 201 2 gusting 4 23.7
2020-Jul-06 22:48 166 2 gusting 4 23.9
2020-Jul-06 22:42 093 3 gusting 5 23.8
2020-Jul-06 22:36 090 3 gusting 7 23.6
2020-Jul-06 22:30 109 4 gusting 7 23.5
2020-Jul-06 22:24 125 3 gusting 8 23.5
2020-Jul-06 22:18 115 3 gusting 7 23.3
2020-Jul-06 22:12 112 6 gusting 10 23.3
2020-Jul-06 22:06 094 7 gusting 13 22.9
2020-Jul-06 22:00 099 8 gusting 13 21.2
2020-Jul-06 21:54 108 8 gusting 13 21.2
2020-Jul-06 21:48 109 7 gusting 11 21.0
2020-Jul-06 21:42 124 4 gusting 8 20.9
2020-Jul-06 21:36 119 2 gusting 4 21.1
2020-Jul-06 21:30 030 5 gusting 13 21.2
2020-Jul-06 21:24 333 9 gusting 17 21.3
2020-Jul-06 21:18 328 12 gusting 20 21.1
2020-Jul-06 21:12 327 14 gusting 21 21.1
2020-Jul-06 21:06 331 16 gusting 28 21.2
2020-Jul-06 21:00 320 19 gusting 28 21.4
2020-Jul-06 20:54 272 6 gusting 20 22.0
2020-Jul-06 20:48 298 5 gusting 12 22.7
2020-Jul-06 20:42 313 8 gusting 12 22.9
2020-Jul-06 20:36 317 8 gusting 14 22.8
2020-Jul-06 20:30 340 7 gusting 13 22.6
2020-Jul-06 20:24 323 12 gusting 20 22.9
2020-Jul-06 20:18 323 17 gusting 29 23.1
2020-Jul-06 20:12 322 19 gusting 27 23.4
2020-Jul-06 20:06 243 11 gusting 19 24.8
2020-Jul-06 20:00 149 3 gusting 6 25.5
2020-Jul-06 19:54 156 4 gusting 9 25.5
2020-Jul-06 19:48 156 5 gusting 8 25.5
2020-Jul-06 19:42 162 4 gusting 8 25.6
2020-Jul-06 19:36 150 2 gusting 5 25.8
2020-Jul-06 19:30 148 3 gusting 5 25.7
2020-Jul-06 19:24 149 4 gusting 8 25.6
2020-Jul-06 19:18 148 4 gusting 9 25.6
2020-Jul-06 19:12 150 6 gusting 11 25.5
2020-Jul-06 19:06 152 6 gusting 11 25.6
2020-Jul-06 19:00 159 5 gusting 10 25.8
2020-Jul-06 18:54 160 5 gusting 8 26.0
2020-Jul-06 18:48 164 5 gusting 11 26.2
2020-Jul-06 18:42 145 4 gusting 9 26.3
2020-Jul-06 18:36 152 4 gusting 8 26.7
2020-Jul-06 18:30 162 4 gusting 9 26.9
2020-Jul-06 18:24 147 5 gusting 9 26.9
2020-Jul-06 18:18 157 4 gusting 11 27.3
2020-Jul-06 18:12 153 4 gusting 9 27.3
2020-Jul-06 18:06 150 5 gusting 9 27.1
2020-Jul-06 18:00 148 5 gusting 13 27.1
2020-Jul-06 17:54 169 5 gusting 10 27.5
2020-Jul-06 17:48 182 6 gusting 11 27.2
2020-Jul-06 17:42 179 6 gusting 12 27.1
2020-Jul-06 17:36 147 4 gusting 8 27.2
2020-Jul-06 17:30 141 4 gusting 9 27.0
2020-Jul-06 17:24 150 4 gusting 9 27.2
2020-Jul-06 17:18 147 5 gusting 9 27.2
2020-Jul-06 17:12 139 4 gusting 9 27.0
2020-Jul-06 17:06 167 5 gusting 11 27.2
2020-Jul-06 17:00 160 5 gusting 8 27.0
2020-Jul-06 16:54 134 5 gusting 10 26.8
2020-Jul-06 16:48 140 5 gusting 10 26.9
2020-Jul-06 16:42 152 4 gusting 9 27.4
2020-Jul-06 16:36 174 4 gusting 8 27.3
2020-Jul-06 16:30 180 5 gusting 9 27.1
2020-Jul-06 16:24 174 5 gusting 10 27.3
2020-Jul-06 16:18 171 5 gusting 9 27.2
2020-Jul-06 16:12 172 5 gusting 10 26.9
2020-Jul-06 16:06 171 5 gusting 10 26.8
2020-Jul-06 16:00 180 6 gusting 11 26.7
2020-Jul-06 15:54 165 4 gusting 8 27.3
2020-Jul-06 15:48 178 3 gusting 6 27.4
2020-Jul-06 15:42 156 3 gusting 7 27.3
2020-Jul-06 15:36 153 4 gusting 7 27.0
2020-Jul-06 15:30 165 3 gusting 7 27.0
2020-Jul-06 15:24 181 5 gusting 9 26.7
2020-Jul-06 15:18 155 3 gusting 6 26.8
2020-Jul-06 15:12 153 4 gusting 7 26.5
2020-Jul-06 15:06 141 4 gusting 7 26.4
2020-Jul-06 15:00 116 5 gusting 7 26.2
2020-Jul-06 14:54 134 3 gusting 8 26.8
2020-Jul-06 14:48 136 3 gusting 7 26.7
2020-Jul-06 14:42 168 3 gusting 8 26.4
2020-Jul-06 14:36 179 5 gusting 8 26.0
2020-Jul-06 14:30 182 5 gusting 9 25.8
2020-Jul-06 14:24 181 5 gusting 8 25.8
2020-Jul-06 14:18 179 3 gusting 9 26.0
2020-Jul-06 14:12 180 5 gusting 8 25.7
2020-Jul-06 14:06 183 4 gusting 8 25.7
2020-Jul-06 14:00 177 5 gusting 9 25.7
2020-Jul-06 13:54 172 4 gusting 8 25.6
2020-Jul-06 13:48 171 5 gusting 8 25.5
2020-Jul-06 13:42 174 5 gusting 8 25.4
2020-Jul-06 13:36 173 5 gusting 8 25.4
2020-Jul-06 13:30 167 4 gusting 8 25.4
2020-Jul-06 13:24 169 4 gusting 8 25.3
2020-Jul-06 13:18 177 5 gusting 9 25.1
2020-Jul-06 13:12 170 4 gusting 8 25.2
2020-Jul-06 13:06 175 4 gusting 7 25.2
2020-Jul-06 13:00 172 5 gusting 8 25.0